SCP
0 0 0 0 0 0 0 0 0 0 0 0 0 0 0 0 0 0 0 0 0 0 0 0 0 0 0 0 0 0 0 0 -0
0 0 0 1 0 0 0 0 0 0 0 0 0 0 0 0 0 0 0 0 0 0 0 0 0 0 0 0 0 0 0 0 0
0 0 0 0 0 0 0 0 0 0 0 0 0 0 0 0 0 0 0 0 0 0 0 0 0 0 0 0 0 0 0 0 0
0 0 0 0 0 0 0 0 0 0 0 0 0 0 0 0 0 0 0 0 0 0 0 0 0 0 0 0 0 0 0 0 0
0 0 0 0 0 0 0 0 0 0 0 0 0 0 0 0 0 0 0 0 0 0 0 0 0 0 0 0 0 0 0 0 0
0 0 0 0 0 0 0 1 1 0 0 0 0 0 0 0 0 0 0 0 0 0 0 0 0 0 0 0 0 0 0 0 0
0 0 0 0 0 0 0 0 1 0 0 0 0 0 0 0 0 0 0 0 0 0 0 0 0 0 0 0 0 0 0 0 0
0 0 0 0 0 0 0 0 0 0 0 0 0 0 0 0 0 0 0 0 0 0 0 0 0 0 0 0 0 0 0 0 0
0 0 0 0 0 0 0 0 0 0 0 0 0 0 0 0 0 0 0 0 0 0 0 -0 0 0 0 0 0 0 0 0 0
0 0 0 0 0 0 0 0 0 0 0 0 0 0 0 0 0 0 0 0 0 0 0 0 0 0 0 0 0 0 0 0 0
0 0 0 0 0 0 0 0 0 0 0 0 0 0 0 0 0 0 0 0 0 0 0 0 0 0 0 0 0 0 0 0 0
0 0 0 0 0 0 0 0 0 0 0 0 0 0 0 0 0 0 0 0 0 0 0 0 0 0 0 0 0 0 0 0 0
0 0 0 0 0 0 0 0 0 0 0 0 0 0 0 0 0 0 0 0 0 0 0 0 0 0 0 0 0 0 0 0 0
0 0 0 0 0 0 0 0 0 0 0 0 0 0 0 0 0 0 0 0 0 0 0 0 0 0 0 0 0 0 0 0 0
0 0 0 0 0 0 0 0 0 0 0 0 0 0 0 0 0 0 0 0 0 0 0 0 0 0 0 0 0 0 0 0 0
0 -0 0 0 0 0 0 0 0 0 0 0 0 0 0 0 0 0 0 0 0 0 0 0 0 0 0 0 0 0 0 0 0
0 -0 0 0 0 0 0 0 0 0 0 0 0 0 0 0 0 0 0 0 0 0 0 0 0 0 0 0 0 0 0 0 0
0 0 0 0 0 0 0 0 0 0 0 0 0 0 0 0 0 0 0 0 0 0 0 0 0 0 0 0 0 0 0 0 0
0 0 0 0 0 0 0 0 0 0 0 0 0 0 0 0 0 0 0 0 0 0 0 0 0 0 0 0 0 0 0 0 0
0 0 0 0 0 0 0 0 0 0 0 0 0 0 0 0 0 0 0 0 0 0 0 0 0 0 0 0 0 0 0 0 0
Wind_Speed_500mb
18 14 15 16 23 26 21 18 20 25 27 31 31 31 32 29 27 27 23 16 13 11 9 9 9 13 28 34 31 33 26 40 40
21 20 20 21 23 26 24 21 23 27 31 34 33 32 29 24 18 14 15 11 13 12 11 8 9 28 35 31 27 25 37 36 34
24 22 23 25 26 27 26 27 25 29 34 36 37 33 29 25 16 14 16 13 12 12 11 10 24 30 36 32 25 31 36 35 30
30 29 28 28 30 29 30 31 30 32 35 39 38 35 33 29 25 22 20 15 12 11 11 22 30 31 29 27 24 27 36 35 31
33 32 32 32 34 34 34 35 33 30 33 42 42 38 35 32 30 24 21 18 20 18 19 26 33 37 31 28 25 30 29 31 32
37 37 35 33 36 38 38 38 37 33 32 41 45 43 39 38 35 31 28 23 25 21 30 34 38 36 31 33 33 33 28 25 28
39 40 38 39 38 41 43 40 40 43 39 38 48 49 47 41 38 38 33 28 27 28 40 44 40 35 35 36 39 37 34 28 22
40 44 45 44 44 45 48 48 49 48 45 42 43 47 53 49 40 41 38 29 34 34 38 46 45 34 26 30 41 44 40 34 29
38 42 44 46 50 52 53 57 61 53 50 47 41 40 50 60 57 48 42 38 38 39 41 50 44 35 28 38 41 41 38 34 27
31 40 41 47 47 53 57 61 64 60 57 55 53 55 50 56 64 53 43 43 44 45 44 53 42 38 35 40 43 45 41 36 33
30 32 37 41 43 49 56 62 64 62 58 56 49 50 50 55 62 53 52 48 49 47 50 53 46 43 40 39 44 47 45 39 41
27 28 28 31 37 44 51 62 65 62 60 62 61 60 60 63 64 59 58 52 51 56 47 56 54 50 47 46 46 44 43 43 46
28 29 30 31 34 41 49 57 64 65 65 66 68 66 65 67 69 63 57 55 53 59 52 56 55 58 55 50 55 51 49 44 36
26 29 29 29 30 39 43 58 70 62 68 79 78 73 78 70 71 69 65 56 60 59 53 48 47 56 61 57 57 53 47 44 37
22 28 33 38 39 31 41 32 57 63 76 82 79 78 77 78 73 77 73 68 69 65 60 54 51 50 55 65 63 63 53 44 41
40 42 42 39 39 42 37 44 48 49 69 85 75 79 82 88 79 83 84 76 72 66 63 60 54 51 49 56 64 63 65 55 43
39 52 48 41 38 39 42 47 43 51 45 64 67 48 77 91 90 91 90 87 81 77 71 68 62 58 55 53 58 69 68 71 60
33 31 34 30 30 33 34 40 43 45 52 39 51 31 51 64 95 101 98 95 91 87 80 77 71 66 62 55 53 62 68 69 74
13 16 17 18 23 28 29 30 30 37 44 43 52 52 62 22 32 81 108 101 99 95 89 84 81 75 71 63 57 53 59 66 69
20 22 23 19 17 11 11 19 29 28 31 28 43 52 53 51 56 30 56 103 107 103 97 92 89 84 80 70 64 61 59 58 65
Wind_Direction_500mb
221 215 198 174 175 172 178 178 176 173 162 158 156 156 152 153 162 164 171 183 172 158 161 159 152 153 122 126 145 147 128 118 130
227 219 206 203 194 193 194 192 189 178 174 166 162 160 156 154 165 188 199 218 206 182 174 174 148 138 139 145 159 143 127 142 148
222 229 217 212 204 202 205 197 192 183 179 178 173 169 169 165 189 204 226 226 224 210 193 168 144 143 154 167 164 148 155 158 159
229 224 226 220 213 208 202 198 193 187 185 187 184 180 179 183 190 207 231 229 244 235 203 160 146 158 168 175 185 169 170 168 157
232 231 230 225 222 216 207 205 205 205 196 197 192 192 196 196 201 211 219 235 271 242 189 166 162 170 183 178 158 171 178 189 193
236 236 236 235 229 224 215 212 217 213 207 202 200 199 201 200 209 215 231 253 263 210 188 180 180 187 185 181 176 179 197 179 184
242 240 238 239 237 230 223 219 220 223 218 205 206 208 205 210 215 216 231 251 243 210 194 192 194 213 201 197 178 186 190 191 186
239 241 238 236 237 235 231 223 223 227 226 223 218 214 214 212 218 215 226 242 232 217 197 194 203 215 223 201 177 190 194 201 197
249 248 245 242 238 239 234 232 228 228 230 229 224 222 221 221 221 226 228 233 228 223 205 201 208 213 207 182 184 189 200 188 194
256 255 254 251 246 244 243 239 239 226 229 238 231 237 222 220 219 221 221 231 232 227 216 204 212 208 202 194 199 198 206 209 209
260 261 261 261 254 248 247 244 244 241 237 235 237 227 221 219 217 223 218 226 233 233 219 214 216 210 203 203 204 207 222 222 230
253 260 262 269 268 257 255 246 240 233 235 240 235 230 224 220 219 231 225 229 235 230 227 221 219 216 210 208 206 205 218 231 235
258 263 266 266 267 263 270 254 245 239 237 237 231 238 227 221 225 232 229 231 229 226 233 230 224 221 217 213 210 210 218 223 232
253 263 266 269 271 268 271 261 250 245 247 240 240 236 236 231 227 229 228 234 228 230 232 234 233 228 224 219 217 217 220 225 227
257 264 270 273 273 268 265 280 256 260 252 245 241 236 240 240 234 231 233 239 234 230 236 236 233 232 233 230 221 218 223 230 225
283 279 273 272 271 266 262 262 266 260 235 247 245 250 247 238 236 239 237 236 235 232 235 236 238 230 230 230 233 229 223 229 233
300 292 289 281 273 270 266 265 266 254 263 242 246 256 251 244 240 235 236 234 237 235 237 234 231 231 233 235 232 232 229 229 237
301 311 313 302 299 294 288 274 270 269 255 259 256 254 254 239 239 235 234 233 234 235 235 231 230 231 236 238 237 236 236 233 226
0 352 350 344 326 305 296 290 279 278 276 273 266 255 271 244 230 228 233 230 231 233 231 234 231 231 234 236 236 234 235 236 236
44 49 33 22 10 354 323 298 288 278 274 286 266 258 259 267 272 299 221 230 229 233 234 234 233 233 234 236 236 235 234 236 241
Wind_Speed_850mb
18 14 15 16 23 26 21 18 20 25 27 31 31 31 32 29 27 27 23 16 13 11 9 9 9 13 28 34 31 33 26 40 40
21 20 20 21 23 26 24 21 23 27 31 34 33 32 29 24 18 14 15 11 13 12 11 8 9 28 35 31 27 25 37 36 34
24 22 23 25 26 27 26 27 25 29 34 36 37 33 29 25 16 14 16 13 12 12 11 10 24 30 36 32 25 31 36 35 30
30 29 28 28 30 29 30 31 30 32 35 39 38 35 33 29 25 22 20 15 12 11 11 22 30 31 29 27 24 27 36 35 31
33 32 32 32 34 34 34 35 33 30 33 42 42 38 35 32 30 24 21 18 20 18 19 26 33 37 31 28 25 30 29 31 32
37 37 35 33 36 38 38 38 37 33 32 41 45 43 39 38 35 31 28 23 25 21 30 34 38 36 31 33 33 33 28 25 28
39 40 38 39 38 41 43 40 40 43 39 38 48 49 47 41 38 38 33 28 27 28 40 44 40 35 35 36 39 37 34 28 22
40 44 45 44 44 45 48 48 49 48 45 42 43 47 53 49 40 41 38 29 34 34 38 46 45 34 26 30 41 44 40 34 29
38 42 44 46 50 52 53 57 61 53 50 47 41 40 50 60 57 48 42 38 38 39 41 50 44 35 28 38 41 41 38 34 27
31 40 41 47 47 53 57 61 64 60 57 55 53 55 50 56 64 53 43 43 44 45 44 53 42 38 35 40 43 45 41 36 33
30 32 37 41 43 49 56 62 64 62 58 56 49 50 50 55 62 53 52 48 49 47 50 53 46 43 40 39 44 47 45 39 41
27 28 28 31 37 44 51 62 65 62 60 62 61 60 60 63 64 59 58 52 51 56 47 56 54 50 47 46 46 44 43 43 46
28 29 30 31 34 41 49 57 64 65 65 66 68 66 65 67 69 63 57 55 53 59 52 56 55 58 55 50 55 51 49 44 36
26 29 29 29 30 39 43 58 70 62 68 79 78 73 78 70 71 69 65 56 60 59 53 48 47 56 61 57 57 53 47 44 37
22 28 33 38 39 31 41 32 57 63 76 82 79 78 77 78 73 77 73 68 69 65 60 54 51 50 55 65 63 63 53 44 41
40 42 42 39 39 42 37 44 48 49 69 85 75 79 82 88 79 83 84 76 72 66 63 60 54 51 49 56 64 63 65 55 43
39 52 48 41 38 39 42 47 43 51 45 64 67 48 77 91 90 91 90 87 81 77 71 68 62 58 55 53 58 69 68 71 60
33 31 34 30 30 33 34 40 43 45 52 39 51 31 51 64 95 101 98 95 91 87 80 77 71 66 62 55 53 62 68 69 74
13 16 17 18 23 28 29 30 30 37 44 43 52 52 62 22 32 81 108 101 99 95 89 84 81 75 71 63 57 53 59 66 69
20 22 23 19 17 11 11 19 29 28 31 28 43 52 53 51 56 30 56 103 107 103 97 92 89 84 80 70 64 61 59 58 65
Wind_Direction_850mb
221 215 198 174 175 172 178 178 176 173 162 158 156 156 152 153 162 164 171 183 172 158 161 159 152 153 122 126 145 147 128 118 130
227 219 206 203 194 193 194 192 189 178 174 166 162 160 156 154 165 188 199 218 206 182 174 174 148 138 139 145 159 143 127 142 148
222 229 217 212 204 202 205 197 192 183 179 178 173 169 169 165 189 204 226 226 224 210 193 168 144 143 154 167 164 148 155 158 159
229 224 226 220 213 208 202 198 193 187 185 187 184 180 179 183 190 207 231 229 244 235 203 160 146 158 168 175 185 169 170 168 157
232 231 230 225 222 216 207 205 205 205 196 197 192 192 196 196 201 211 219 235 271 242 189 166 162 170 183 178 158 171 178 189 193
236 236 236 235 229 224 215 212 217 213 207 202 200 199 201 200 209 215 231 253 263 210 188 180 180 187 185 181 176 179 197 179 184
242 240 238 239 237 230 223 219 220 223 218 205 206 208 205 210 215 216 231 251 243 210 194 192 194 213 201 197 178 186 190 191 186
239 241 238 236 237 235 231 223 223 227 226 223 218 214 214 212 218 215 226 242 232 217 197 194 203 215 223 201 177 190 194 201 197
249 248 245 242 238 239 234 232 228 228 230 229 224 222 221 221 221 226 228 233 228 223 205 201 208 213 207 182 184 189 200 188 194
256 255 254 251 246 244 243 239 239 226 229 238 231 237 222 220 219 221 221 231 232 227 216 204 212 208 202 194 199 198 206 209 209
260 261 261 261 254 248 247 244 244 241 237 235 237 227 221 219 217 223 218 226 233 233 219 214 216 210 203 203 204 207 222 222 230
253 260 262 269 268 257 255 246 240 233 235 240 235 230 224 220 219 231 225 229 235 230 227 221 219 216 210 208 206 205 218 231 235
258 263 266 266 267 263 270 254 245 239 237 237 231 238 227 221 225 232 229 231 229 226 233 230 224 221 217 213 210 210 218 223 232
253 263 266 269 271 268 271 261 250 245 247 240 240 236 236 231 227 229 228 234 228 230 232 234 233 228 224 219 217 217 220 225 227
257 264 270 273 273 268 265 280 256 260 252 245 241 236 240 240 234 231 233 239 234 230 236 236 233 232 233 230 221 218 223 230 225
283 279 273 272 271 266 262 262 266 260 235 247 245 250 247 238 236 239 237 236 235 232 235 236 238 230 230 230 233 229 223 229 233
300 292 289 281 273 270 266 265 266 254 263 242 246 256 251 244 240 235 236 234 237 235 237 234 231 231 233 235 232 232 229 229 237
301 311 313 302 299 294 288 274 270 269 255 259 256 254 254 239 239 235 234 233 234 235 235 231 230 231 236 238 237 236 236 233 226
0 352 350 344 326 305 296 290 279 278 276 273 266 255 271 244 230 228 233 230 231 233 231 234 231 231 234 236 236 234 235 236 236
44 49 33 22 10 354 323 298 288 278 274 286 266 258 259 267 272 299 221 230 229 233 234 234 233 233 234 236 236 235 234 236 241